Weather History for Rutland, VT

Change the Weather History Date:

Friday, March 29, 2013

  Actual Average Record
Temperature  
Mean Temperature 38 °F -  
Max Temperature 45 °F - 78 °F (1981)
Min Temperature 30 °F - 3 °F (1974)
Degree Days  
Heating Degree Days 27    
Month to date heating degree days 998  
Since 1 July heating degree days 5874  
Cooling Degree Days 0    
Month to date cooling degree days 0  
Year to date cooling degree days 0  
Moisture  
Dew Point 31 °F    
Average Humidity 77    
Maximum Humidity 96    
Minimum Humidity 57    
Precipitation  
Precipitation 0.01 in - 0.75 in (1993)
Month to date precipitation 0.83  
Year to date precipitation 2.58  
Sea Level Pressure  
Sea Level Pressure 30.05 in    
Wind  
Wind Speed 4 mph (NE)    
Max Wind Speed 10 mph    
Max Gust Speed -    
Visibility 10 miles    
Events      
T = Trace of Precipitation, MM = Missing Value Source: NWS Daily Summary

Daily Weather History Graph

Daily Weather History Graph

Search for Another Location

Airport:

Trip Planner

Search our weather history database for the weather conditions in past years. The results will help you decide how hot, cold, wet, or windy it might be!

Date:

Astronomy

Mar. 29, 2013 Rise Set
Actual Time 6:38 AM EDT 7:15 PM EDT
Civil Twilight 6:09 AM EDT 7:44 PM EDT
Nautical Twilight 5:35 AM EDT 8:18 PM EDT
Astronomical Twilight 5:00 AM EDT 8:53 PM EDT
Moon 10:18 PM EDT (3/29) 7:40 AM EDT (3/29)
Length of Visible Light 13h 34m
Length of Day
12h 36m
Waning Gibbous, 93% of the Moon is Illuminated
Mar 29
Waning Gibbous
Apr 3
Last Quarter
Apr 10
New
Apr 18
First Quarter
Apr 25
Full

Hourly Weather History & Observations

Time (EDT) Temp. Windchill Dew Point Humidity Pressure Visibility Wind Dir Wind Speed Gust Speed Precip Events Conditions
12:35 AM 32.0 °F 27.5 °F 28.4 °F 87% 30.06 in 10.0 mi SSE 4.6 mph - N/A   Overcast
12:55 AM 32.0 °F 28.7 °F 28.4 °F 87% 30.06 in 10.0 mi SSE 3.5 mph - N/A   Overcast
1:15 AM 32.0 °F 28.7 °F 28.4 °F 87% 30.06 in 10.0 mi SE 3.5 mph - N/A   Overcast
1:35 AM 32.0 °F 28.7 °F 28.4 °F 87% 30.06 in 10.0 mi SE 3.5 mph - N/A   Overcast
1:55 AM 32.0 °F 27.5 °F 28.4 °F 87% 30.06 in 10.0 mi SE 4.6 mph - N/A   Overcast
2:15 AM 32.0 °F 27.5 °F 28.4 °F 87% 30.06 in 10.0 mi SE 4.6 mph - N/A   Overcast
7:55 AM 30.2 °F 26.7 °F 28.4 °F 93% 30.08 in 9.0 mi SSE 3.5 mph - N/A   Mostly Cloudy
8:15 AM 33.8 °F - 30.2 °F 87% 30.08 in 10.0 mi Calm Calm - N/A   Overcast
8:35 AM 35.6 °F - 30.2 °F 81% 30.08 in 10.0 mi Calm Calm - N/A   Overcast
8:55 AM 35.6 °F - 30.2 °F 81% 30.09 in 10.0 mi Calm Calm - N/A   Overcast
9:15 AM 37.4 °F - 30.2 °F 75% 30.08 in 10.0 mi Calm Calm - N/A   Overcast
9:35 AM 37.4 °F - 30.2 °F 75% 30.08 in 10.0 mi Calm Calm - N/A   Overcast
9:55 AM 39.2 °F - 30.2 °F 70% 30.08 in 10.0 mi Calm Calm - N/A   Overcast
10:15 AM 39.2 °F - 30.2 °F 70% 30.08 in 10.0 mi Calm Calm - N/A   Overcast
10:35 AM 41.0 °F 39.0 °F 30.2 °F 65% 30.08 in 10.0 mi SSW 3.5 mph - N/A   Mostly Cloudy
10:55 AM 42.8 °F 40.1 °F 30.2 °F 61% 30.08 in 10.0 mi WNW 4.6 mph - N/A   Mostly Cloudy
11:15 AM 42.8 °F - 30.2 °F 61% 30.08 in 10.0 mi Calm Calm - N/A   Overcast
11:35 AM 42.8 °F - 30.2 °F 61% 30.07 in 10.0 mi Calm Calm - N/A   Overcast
11:55 AM 44.6 °F 40.2 °F 30.2 °F 57% 30.06 in 10.0 mi North 8.1 mph - N/A   Overcast
12:15 PM 44.6 °F 42.2 °F 30.2 °F 57% 30.06 in 10.0 mi NW 4.6 mph - N/A   Overcast
12:55 PM 44.6 °F 40.7 °F 30.2 °F 57% 30.05 in 10.0 mi North 6.9 mph - N/A   Overcast
1:15 PM 44.6 °F - 30.2 °F 57% 30.04 in 10.0 mi Calm Calm - N/A   Overcast
1:35 PM 44.6 °F 42.2 °F 30.2 °F 57% 30.03 in 10.0 mi WNW 4.6 mph - N/A   Overcast
1:55 PM 44.6 °F 40.7 °F 30.2 °F 57% 30.04 in 10.0 mi NNW 6.9 mph - N/A   Overcast
2:15 PM 42.8 °F 39.3 °F 32.0 °F 66% 30.03 in 10.0 mi NNE 5.8 mph - N/A   Overcast
2:55 PM 41.0 °F 34.7 °F 33.8 °F 76% 30.02 in 10.0 mi NNW 10.4 mph - 0.01 in   Overcast
3:15 PM 41.0 °F 35.2 °F 35.6 °F 81% 30.02 in 10.0 mi North 9.2 mph - N/A   Mostly Cloudy
3:35 PM 41.0 °F 37.1 °F 35.6 °F 81% 30.03 in 10.0 mi NNW 5.8 mph - N/A   Overcast
3:56 PM 41.0 °F 36.4 °F 33.8 °F 76% 30.02 in 10.0 mi North 6.9 mph - N/A   Overcast
4:15 PM 42.8 °F 39.3 °F 33.8 °F 70% 30.02 in 10.0 mi NNW 5.8 mph - N/A   Overcast
4:35 PM 42.8 °F 40.1 °F 33.8 °F 70% 30.02 in 10.0 mi NNW 4.6 mph - N/A   Overcast
4:55 PM 42.8 °F 41.1 °F 30.2 °F 61% 30.02 in 10.0 mi NNW 3.5 mph - N/A   Overcast
5:15 PM 42.8 °F 39.3 °F 28.4 °F 57% 30.02 in 10.0 mi WNW 5.8 mph - N/A   Overcast
5:35 PM 42.8 °F - 30.2 °F 61% 30.02 in 10.0 mi Calm Calm - N/A   Overcast
5:55 PM 42.8 °F 39.3 °F 28.4 °F 57% 30.02 in 10.0 mi West 5.8 mph - N/A   Overcast
6:15 PM 42.8 °F 40.1 °F 28.4 °F 57% 30.02 in 10.0 mi WNW 4.6 mph - N/A   Overcast
6:36 PM 39.2 °F 33.6 °F 32.0 °F 75% 30.03 in 10.0 mi NNW 8.1 mph - 0.01 in   Overcast
7:15 PM 39.2 °F - 33.8 °F 81% 30.04 in 10.0 mi Calm Calm - N/A   Overcast
7:35 PM 37.4 °F - 35.6 °F 93% 30.04 in 10.0 mi Calm Calm - N/A   Overcast
7:55 PM 37.4 °F - 35.6 °F 93% 30.05 in 10.0 mi Calm Calm - N/A   Overcast
8:15 PM 37.4 °F 34.9 °F 33.8 °F 87% 30.05 in 10.0 mi South 3.5 mph - N/A   Overcast
8:35 PM 37.4 °F 33.8 °F 33.8 °F 87% 30.05 in 10.0 mi ESE 4.6 mph - N/A   Overcast
8:55 PM 37.4 °F 33.8 °F 33.8 °F 87% 30.06 in 10.0 mi SSE 4.6 mph - N/A   Overcast
9:15 PM 35.6 °F 31.7 °F 33.8 °F 93% 30.06 in 10.0 mi SE 4.6 mph - N/A   Overcast
9:35 PM 35.6 °F 31.7 °F 33.8 °F 93% 30.07 in 10.0 mi SE 4.6 mph - N/A   Overcast
9:55 PM 35.6 °F 31.7 °F 33.8 °F 93% 30.07 in 10.0 mi ESE 4.6 mph - N/A   Overcast
10:15 PM 35.6 °F - 33.8 °F 93% 30.07 in 10.0 mi Calm Calm - N/A   Overcast
10:35 PM 35.6 °F - 33.8 °F 93% 30.07 in 10.0 mi Calm Calm - N/A   Overcast
10:55 PM 35.6 °F 30.7 °F 33.8 °F 93% 30.07 in 10.0 mi SE 5.8 mph - N/A   Overcast
11:15 PM 35.6 °F 31.7 °F 33.8 °F 93% 30.07 in 10.0 mi SE 4.6 mph - N/A   Overcast
11:35 PM 33.8 °F 28.6 °F 33.8 °F 100% 30.07 in 10.0 mi SE 5.8 mph - N/A   Overcast